#timestamp,LO_Frequency,Hit,StdDev 
1628733615.8,286046999.8,N
1628733635.6,286047001.0,N
1628733655.5,286046999.8,N
1628733675.3,286047003.6,Y
1628733695.1,286047004.1,P
1628733715.9,286047002.2,N
1628733735.7,286047001.3,N
1628733755.6,286047004.3,Y
1628733775.4,286046998.1,P
1628733795.2,286047001.0,N
1628733815.1,286047000.3,N
1628733816.0,286047000.3,N
1628733835.8,286047001.2,N
1628733855.6,286046998.5,N
1628733875.5,286047001.0,N
1628733895.3,286046998.1,N
1628733915.2,286046998.2,N
1628733935.9,286046999.3,N
1628733955.7,286046997.0,N
1628733975.6,286046999.0,N
1628733995.4,286047000.9,N
1628734015.2,286046998.1,N
1628734035.1,286047000.5,N
1628734036.0,286047000.5,N
1628734055.8,286047002.8,N
1628734075.7,286047002.1,N
1628734095.5,286047002.7,N
1628734115.3,286046998.2,N
1628734135.2,286047000.8,N
1628734155.0,286047001.1,N
1628734155.9,286047001.1,N
1628734175.7,286046998.5,N
1628734195.6,286047001.2,N
1628734215.4,286047000.4,N
1628734235.3,286047000.1,N
1628734255.1,286047002.5,N
1628734256.0,286047002.5,N
1628734275.8,286047002.6,N
1628734295.7,286047001.6,N
1628734315.5,286047004.3,N
1628734335.3,286047002.1,N
1628734355.2,286047002.8,N
1628734375.0,286047000.7,N
1628734375.9,286047000.7,N
1628734395.8,286047000.5,N
1628734415.6,286047000.9,N
1628734435.4,286047001.0,N
1628734455.3,286047000.9,N
1628734475.1,286047002.0,N
1628734495.8,286047002.3,N
1628734515.7,286047002.4,N
1628734535.5,286046999.7,N
1628734555.4,286047002.5,N
1628734575.2,286047002.6,N
1628734595.0,286047002.5,N
1628734595.9,286047002.5,N
1628734615.8,286047002.1,N
1628734635.6,286047002.2,N
1628734655.4,286047000.1,N
1628734675.3,286047002.1,N
1628734695.1,286047002.3,N
1628734715.9,286046999.9,N
1628734735.7,286047002.4,N
1628734755.5,286047002.3,N
1628734775.4,286046999.9,N
1628734795.2,286047002.5,N
1628734815.0,286047002.1,N
1628734815.9,286047002.1,N
1628734835.8,286047004.3,Y
1628734855.6,286047001.8,P
1628734875.5,286047003.6,P
1628734895.3,286047004.8,P
1628734915.1,286047007.2,Y
1628734935.9,286047001.8,P
1628734955.7,286047003.9,P
1628734975.6,286047003.4,P
1628734995.4,286047003.0,Y
1628735015.2,286047001.4,P
1628735035.1,286047003.1,P
1628735036.0,286047003.1,P
1628735055.8,286047003.7,Y
1628735075.7,286046999.8,P
1628735095.5,286047000.1,N
1628735115.3,286046999.9,N
1628735135.2,286047001.9,N
1628735155.0,286047004.2,Y
1628735155.9,286047004.2,P
1628735175.7,286047002.9,N
1628735195.6,286047004.6,P
1628735215.4,286047003.2,N
1628735235.3,286047001.8,N
1628735255.1,286047003.3,N
1628735256.0,286047003.3,N
1628735275.8,286047003.8,Y
1628735295.7,286047000.4,P
1628735315.5,286047002.8,N
1628735335.4,286047001.5,N
1628735355.2,286047006.0,Y
1628735375.0,286047004.4,P
1628735375.9,286047004.4,P
1628735395.8,286047001.3,N
1628735415.6,286047004.1,N
1628735435.4,286047003.9,N
1628735455.3,286047001.8,N
1628735475.1,286047001.6,N
1628735495.9,286047004.2,Y
1628735515.7,286047002.7,P
1628735535.5,286047002.4,P
1628735555.4,286047002.5,P
1628735575.2,286047002.8,Y
1628735595.1,286046998.8,P
1628735596.0,286046998.8,N
1628735615.8,286046998.6,N
1628735635.6,286047000.9,N
1628735655.5,286047001.0,N
1628735675.3,286046999.2,N
1628735695.1,286046999.1,N
1628735715.9,286046999.2,N
1628735735.7,286046996.9,N
1628735755.6,286047000.5,N
1628735775.4,286047000.7,N
1628735795.2,286046999.5,N
1628735815.1,286046996.9,N
1628735816.0,286046996.9,N
1628735835.8,286046998.0,N
1628735855.6,286046997.3,N
1628735875.5,286046996.5,N
1628735895.3,286046997.2,N
1628735915.2,286046995.1,N
1628735935.0,286046993.5,Y
1628735935.9,286046993.5,P
1628735955.8,286046996.2,N
1628735975.6,286046997.4,N
1628735995.4,286046995.6,N
1628736015.3,286046995.0,N
1628736035.1,286046997.5,N
1628736055.8,286046997.4,N
1628736075.7,286046995.1,Y
1628736095.5,286046999.5,P
1628736115.4,286046997.8,N
1628736135.2,286046997.3,N
1628736155.0,286046997.1,N
1628736155.9,286046997.1,N
1628736175.8,286046996.1,Y
1628736195.6,286046999.1,P
1628736215.4,286046996.8,P
1628736235.3,286046994.9,P
1628736255.1,286046995.4,Y
1628736275.9,286047001.2,P
1628736295.7,286046999.0,N
1628736315.5,286046999.0,N
1628736335.4,286047001.0,N
1628736355.2,286046999.2,N
1628736375.1,286046997.2,N
1628736376.0,286046997.2,N
1628736395.8,286046996.2,N
1628736415.6,286046995.5,N
1628736435.5,286046997.2,N
1628736455.3,286046994.9,N
1628736475.2,286046997.9,N
1628736495.9,286046995.1,N
1628736515.7,286046993.5,Y
1628736535.6,286046995.7,P
1628736555.4,286046997.6,N
1628736575.2,286046997.5,N
1628736595.1,286046995.7,Y
1628736596.0,286046995.7,P
1628736615.8,286046998.9,N
1628736635.7,286046999.5,N
1628736655.5,286046998.8,N
1628736675.3,286047011.9,Y
1628736695.2,286046999.7,P
1628736715.0,286047000.2,N
1628736715.9,286047000.2,N
1628736735.8,286046998.6,N
1628736755.6,286046998.7,N
1628736775.4,286046998.5,N
1628736795.3,286047001.2,N
1628736815.1,286047002.8,N
1628736835.8,286047004.0,N
1628736855.7,286047004.1,N
1628736875.5,286047003.6,N
1628736895.4,286047003.2,N
1628736915.2,286047002.5,N
1628736935.0,286047002.2,N
1628736935.9,286047002.2,N
1628736955.8,286047002.1,N
1628736975.6,286047000.2,N
1628736995.5,286047011.9,Y
1628737015.3,286047000.7,P
1628737035.1,286047002.4,P
1628737055.9,286047002.0,N
1628737075.7,286047000.6,N
1628737095.5,286047001.2,N
1628737115.4,286046998.1,N
1628737135.2,286047000.2,N
1628737155.1,286047000.1,N
1628737156.0,286047000.1,N
1628737175.8,286047000.1,N
1628737195.6,286047000.6,N
